This demonstration page uses our WeatherBlox Daily Observations layout. Learn more.

Left ArrowRight Arrow

38.89511, -77.03637

Hourly Observations for May 28, 2022

Temp ( °F °C ) Dew Point ( °F °C ) Humidity (%) Winds ( mph kmh ) Pressure ( in mb ) Visibility ( mi km ) Precip ( " mm )
12:52 am 00:52 Cloudy 66 18.9 61 16.1 84 84 SSW 6 9 29.76 1008 10 16 0.00 0.00
1:52 am 01:52 Mostly Cloudy 66 18.9 62 16.7 87 87 SSW 6 9 29.77 1008 10 16 0.00 0.00
2:52 am 02:52 Cloudy with Light Rain 66 18.9 62 16.7 87 87 SW 8 13 29.78 1008 10 16 0.00 0.00
3:52 am 03:52 Cloudy with Light Rain 65 18.3 60 15.6 84 84 WSW 5 7 29.77 1008 10 16 0.01 0.25
4:52 am 04:52 Cloudy 64 17.8 60 15.6 87 87 SSW 5 7 29.76 1008 10 16 0.01 0.25
5:52 am 05:52 Partly Cloudy 64 17.8 60 15.6 87 87 W 7 11 29.77 1008 10 16 0.00 0.00
6:52 am 06:52 Mostly Sunny 65 18.3 60 15.6 84 84 SSW 3 6 29.78 1009 10 16 0.00 0.00
7:52 am 07:52 Partly Cloudy 67 19.4 60 15.6 79 79 W 6 9 29.81 1010 10 16 0.00 0.00
8:52 am 08:52 Partly Cloudy 70 21.1 57 13.9 64 64 W 9 15 29.82 1010 10 16 0.00 0.00
9:52 am 09:52 Partly Cloudy 72 22.2 56 13.3 57 57 WNW 15 24 29.82 1010 10 16 0.00 0.00
10:52 am 10:52 Mostly Cloudy 73 22.8 55 12.8 53 53 W 10 17 29.84 1010 10 16 0.00 0.00
11:52 am 11:52 Mostly Cloudy 75 23.9 56 13.3 52 52 W 8 13 29.83 1010 10 16 0.00 0.00
12:52 pm 12:52 Partly Cloudy 77 25 55 12.8 47 47 W 18 30 29.83 1010 10 16 0.00 0.00
1:52 pm 13:52 Mostly Cloudy 75 23.9 55 12.8 50 50 W 10 17 29.84 1011 10 16 0.00 0.00
2:52 pm 14:52 Partly Cloudy 78 25.6 55 12.8 45 45 WNW 15 24 29.84 1011 10 16 0.00 0.00
3:52 pm 15:52 Mostly Cloudy 79 26.1 56 13.3 45 45 W 10 17 29.84 1011 10 16 0.00 0.00
4:52 pm 16:52 Mostly Cloudy 78 25.6 57 13.9 48 48 W 10 17 29.85 1011 10 16 0.00 0.00
5:52 pm 17:52 Mostly Cloudy 76 24.4 56 13.3 50 50 W 12 19 29.86 1011 10 16 0.00 0.00
6:52 pm 18:52 Mostly Cloudy 76 24.4 57 13.9 52 52 W 9 15 29.87 1012 10 16 0.00 0.00
7:52 pm 19:52 Partly Cloudy 75 23.9 56 13.3 52 52 W 8 13 29.89 1012 10 16 0.00 0.00
8:52 pm 20:52 Mostly Clear 73 22.8 56 13.3 55 55 W 7 11 29.90 1013 10 16 0.00 0.00
9:52 pm 21:52 Clear 72 22.2 57 13.9 59 59 WNW 6 9 29.92 1013 10 16 0.00 0.00
10:52 pm 22:52 Mostly Clear 71 21.7 58 14.4 63 63 Calm 29.94 1014 10 16 0.00 0.00
11:52 pm 23:52 Mostly Cloudy 71 21.7 57 13.9 61 61 W 5 7 29.96 1014 10 16 0.00 0.00

Powered by AerisWeather